Time,TemperatureF,DewpointF,PressureIn,WindDirection,WindDirectionDegrees,WindSpeedMPH,WindSpeedGustMPH,Humidity,HourlyPrecipIn,Conditions,Clouds,dailyrainin,SoftwareType,DateUTC
2013-06-30 00:12:00,72.1,71.5,29.63,WSW,247,0.0,-999.0,98,-99.99,,,0.00,Acu-Link.com,2013-06-30 04:12:00,
2013-06-30 00:27:00,72.0,71.4,29.63,SW,225,0.0,-999.0,98,-99.99,,,0.00,Acu-Link.com,2013-06-30 04:27:00,
2013-06-30 00:42:00,71.6,71.0,29.64,WSW,247,0.0,-999.0,98,-99.99,,,0.00,Acu-Link.com,2013-06-30 04:42:00,
2013-06-30 00:58:00,71.4,70.8,29.64,SW,225,0.0,-999.0,98,-99.99,,,0.00,Acu-Link.com,2013-06-30 04:58:00,
2013-06-30 01:13:00,71.2,70.6,29.64,SW,225,0.0,-999.0,98,-99.99,,,0.00,Acu-Link.com,2013-06-30 05:13:00,
2013-06-30 01:28:00,71.1,70.5,29.64,WSW,247,0.0,-999.0,98,-99.99,,,0.00,Acu-Link.com,2013-06-30 05:28:00,
2013-06-30 01:43:00,70.9,70.3,29.65,SSW,202,0.0,-999.0,98,-99.99,,,0.00,Acu-Link.com,2013-06-30 05:43:00,
2013-06-30 01:58:00,70.5,69.9,29.65,South,180,0.0,-999.0,98,-99.99,,,0.00,Acu-Link.com,2013-06-30 05:58:00,
2013-06-30 02:13:00,70.5,69.9,29.66,SW,225,0.0,-999.0,98,-99.99,,,0.00,Acu-Link.com,2013-06-30 06:13:00,
2013-06-30 02:29:00,70.2,69.6,29.66,SW,225,0.0,-999.0,98,-99.99,,,0.00,Acu-Link.com,2013-06-30 06:29:00,
2013-06-30 02:44:00,70.0,69.4,29.66,SW,225,0.0,-999.0,98,-99.99,,,0.00,Acu-Link.com,2013-06-30 06:44:00,
2013-06-30 02:59:00,70.0,69.4,29.66,SW,225,0.0,-999.0,98,-99.99,,,0.00,Acu-Link.com,2013-06-30 06:59:00,
2013-06-30 03:14:00,69.8,69.2,29.66,WSW,247,0.0,-999.0,98,-99.99,,,0.00,Acu-Link.com,2013-06-30 07:14:00,
2013-06-30 03:29:00,69.6,69.0,29.66,SSW,202,0.0,-999.0,98,-99.99,,,0.00,Acu-Link.com,2013-06-30 07:29:00,
2013-06-30 03:45:00,69.4,68.8,29.66,West,270,0.0,-999.0,98,-99.99,,,0.00,Acu-Link.com,2013-06-30 07:45:00,
2013-06-30 04:00:00,69.3,68.7,29.65,SSW,202,0.0,-999.0,98,-99.99,,,0.00,Acu-Link.com,2013-06-30 08:00:00,
2013-06-30 04:15:00,69.4,68.8,29.66,SW,225,0.0,-999.0,98,-99.99,,,0.00,Acu-Link.com,2013-06-30 08:15:00,
2013-06-30 04:30:00,69.4,68.8,29.66,SW,225,0.0,-999.0,98,-99.99,,,0.00,Acu-Link.com,2013-06-30 08:30:00,
2013-06-30 04:45:00,69.4,68.8,29.66,SW,225,0.0,-999.0,98,-99.99,,,0.00,Acu-Link.com,2013-06-30 08:45:00,
2013-06-30 05:00:00,69.1,68.5,29.67,SW,225,0.0,-999.0,98,-99.99,,,0.00,Acu-Link.com,2013-06-30 09:00:00,
2013-06-30 05:16:00,68.9,68.3,29.68,SSE,157,0.0,-999.0,98,-99.99,,,0.00,Acu-Link.com,2013-06-30 09:16:00,
2013-06-30 05:31:00,68.7,68.1,29.68,SSE,157,0.0,-999.0,98,-99.99,,,0.00,Acu-Link.com,2013-06-30 09:31:00,
2013-06-30 05:46:00,68.9,68.3,29.69,SW,225,0.0,-999.0,98,-99.99,,,0.00,Acu-Link.com,2013-06-30 09:46:00,
2013-06-30 06:01:00,68.9,68.3,29.69,SW,225,0.0,-999.0,98,-99.99,,,0.00,Acu-Link.com,2013-06-30 10:01:00,
2013-06-30 06:16:00,69.1,68.5,29.70,SSW,202,0.0,-999.0,98,-99.99,,,0.00,Acu-Link.com,2013-06-30 10:16:00,
2013-06-30 06:32:00,69.6,69.0,29.71,SSW,202,0.0,-999.0,98,-99.99,,,0.00,Acu-Link.com,2013-06-30 10:32:00,
2013-06-30 06:47:00,70.2,69.6,29.71,SSW,202,0.0,-999.0,98,-99.99,,,0.00,Acu-Link.com,2013-06-30 10:47:00,
2013-06-30 07:02:00,70.7,70.1,29.71,SW,225,0.0,-999.0,98,-99.99,,,0.00,Acu-Link.com,2013-06-30 11:02:00,
2013-06-30 07:17:00,71.4,70.8,29.73,SSW,202,0.0,-999.0,98,-99.99,,,0.00,Acu-Link.com,2013-06-30 11:17:00,
2013-06-30 07:33:00,71.8,71.2,29.74,SW,225,0.0,-999.0,98,-99.99,,,0.00,Acu-Link.com,2013-06-30 11:33:00,
2013-06-30 07:48:00,72.3,71.7,29.74,SW,225,0.0,-999.0,98,-99.99,,,0.00,Acu-Link.com,2013-06-30 11:48:00,
2013-06-30 08:03:00,73.0,72.4,29.74,SW,225,0.0,-999.0,98,-99.99,,,0.00,Acu-Link.com,2013-06-30 12:03:00,
2013-06-30 08:18:00,73.6,73.0,29.75,SW,225,0.0,-999.0,98,-99.99,,,0.00,Acu-Link.com,2013-06-30 12:18:00,
2013-06-30 08:33:00,74.3,73.7,29.75,SSW,202,0.0,-999.0,98,-99.99,,,0.00,Acu-Link.com,2013-06-30 12:33:00,
2013-06-30 08:49:00,75.4,74.8,29.74,SSW,202,0.0,-999.0,98,-99.99,,,0.00,Acu-Link.com,2013-06-30 12:49:00,
2013-06-30 09:04:00,76.3,75.7,29.75,SSW,202,0.0,-999.0,98,-99.99,,,0.00,Acu-Link.com,2013-06-30 13:04:00,
2013-06-30 09:19:00,76.8,76.2,29.75,SSW,202,0.0,-999.0,98,-99.99,,,0.00,Acu-Link.com,2013-06-30 13:19:00,
2013-06-30 09:34:00,78.3,77.6,29.75,SSE,157,0.0,-999.0,98,-99.99,,,0.00,Acu-Link.com,2013-06-30 13:34:00,
2013-06-30 09:49:00,78.4,77.8,29.75,SSE,157,0.0,-999.0,98,-99.99,,,0.00,Acu-Link.com,2013-06-30 13:49:00,
2013-06-30 10:04:00,79.3,78.7,29.75,SW,225,0.0,-999.0,98,-99.99,,,0.00,Acu-Link.com,2013-06-30 14:04:00,
2013-06-30 10:20:00,79.3,78.7,29.75,WNW,292,0.0,-999.0,98,-99.99,,,0.00,Acu-Link.com,2013-06-30 14:20:00,
2013-06-30 10:35:00,79.7,79.1,29.75,West,270,0.0,-999.0,98,-99.99,,,0.00,Acu-Link.com,2013-06-30 14:35:00,
2013-06-30 10:50:00,82.2,81.6,29.75,SSE,157,0.0,-999.0,98,-99.99,,,0.00,Acu-Link.com,2013-06-30 14:50:00,
2013-06-30 11:05:00,81.7,81.1,29.75,SE,135,0.0,-999.0,98,-99.99,,,0.00,Acu-Link.com,2013-06-30 15:05:00,
2013-06-30 11:21:00,82.6,82.0,29.75,SW,225,0.0,-999.0,98,-99.99,,,0.00,Acu-Link.com,2013-06-30 15:21:00,
2013-06-30 11:36:00,82.6,82.0,29.75,East,90,0.0,-999.0,98,-99.99,,,0.00,Acu-Link.com,2013-06-30 15:36:00,
2013-06-30 11:51:00,84.4,83.8,29.75,South,180,0.0,-999.0,98,-99.99,,,0.00,Acu-Link.com,2013-06-30 15:51:00,
2013-06-30 12:06:00,83.3,82.7,29.74,West,270,0.0,-999.0,98,-99.99,,,0.00,Acu-Link.com,2013-06-30 16:06:00,
2013-06-30 12:21:00,87.1,86.4,29.75,South,180,0.0,-999.0,98,-99.99,,,0.00,Acu-Link.com,2013-06-30 16:21:00,
2013-06-30 12:37:00,84.4,83.8,29.74,SW,225,0.0,-999.0,98,-99.99,,,0.00,Acu-Link.com,2013-06-30 16:37:00,
2013-06-30 12:52:00,84.9,84.3,29.74,SW,225,0.0,-999.0,98,-99.99,,,0.00,Acu-Link.com,2013-06-30 16:52:00,
2013-06-30 13:07:00,85.6,85.0,29.74,SE,135,0.0,-999.0,98,-99.99,,,0.00,Acu-Link.com,2013-06-30 17:07:00,
2013-06-30 13:25:00,83.7,83.0,29.74,ESE,112,0.0,-999.0,98,-99.99,,,0.00,Acu-Link.com,2013-06-30 17:25:00,
2013-06-30 13:40:00,83.7,83.0,29.73,South,180,0.0,-999.0,98,-99.99,,,0.00,Acu-Link.com,2013-06-30 17:40:00,
2013-06-30 13:55:00,83.3,82.7,29.74,West,270,1.6,-999.0,98,-99.99,,,0.00,Acu-Link.com,2013-06-30 17:55:00,
2013-06-30 14:10:00,82.6,82.0,29.75,WNW,292,2.2,-999.0,98,-99.99,,,0.00,Acu-Link.com,2013-06-30 18:10:00,
2013-06-30 14:26:00,82.4,81.8,29.74,SSE,157,0.0,-999.0,98,-99.99,,,0.00,Acu-Link.com,2013-06-30 18:26:00,
2013-06-30 14:41:00,82.2,81.6,29.75,NW,315,2.7,-999.0,98,-99.99,,,0.00,Acu-Link.com,2013-06-30 18:41:00,
2013-06-30 14:56:00,81.9,81.2,29.75,SSW,202,0.0,-999.0,98,-99.99,,,0.00,Acu-Link.com,2013-06-30 18:56:00,
2013-06-30 15:12:00,80.8,80.2,29.76,WSW,247,0.0,-999.0,98,-99.99,,,0.00,Acu-Link.com,2013-06-30 19:12:00,
2013-06-30 15:27:00,80.4,79.8,29.75,West,270,0.0,-999.0,98,-99.99,,,0.00,Acu-Link.com,2013-06-30 19:27:00,
2013-06-30 15:43:00,81.0,80.3,29.76,SSE,157,0.0,-999.0,98,-99.99,,,0.00,Acu-Link.com,2013-06-30 19:43:00,
2013-06-30 15:58:00,80.6,80.0,29.75,South,180,3.1,-999.0,98,-99.99,,,0.00,Acu-Link.com,2013-06-30 19:58:00,
2013-06-30 16:13:00,80.2,79.6,29.75,West,270,0.0,-999.0,98,-99.99,,,0.00,Acu-Link.com,2013-06-30 20:13:00,
2013-06-30 16:28:00,79.9,79.3,29.75,East,90,2.2,-999.0,98,-99.99,,,0.00,Acu-Link.com,2013-06-30 20:28:00,
2013-06-30 16:43:00,80.4,79.8,29.76,South,180,0.0,-999.0,98,-99.99,,,0.00,Acu-Link.com,2013-06-30 20:43:00,
2013-06-30 16:59:00,80.4,79.8,29.76,West,270,0.0,-999.0,98,-99.99,,,0.00,Acu-Link.com,2013-06-30 20:59:00,
2013-06-30 17:14:00,81.0,80.3,29.76,West,270,0.0,-999.0,98,-99.99,,,0.00,Acu-Link.com,2013-06-30 21:14:00,
2013-06-30 17:29:00,80.4,79.8,29.76,SSW,202,0.0,-999.0,98,-99.99,,,0.00,Acu-Link.com,2013-06-30 21:29:00,
2013-06-30 17:44:00,80.2,79.6,29.77,WSW,247,0.0,-999.0,98,-99.99,,,0.00,Acu-Link.com,2013-06-30 21:44:00,
2013-06-30 17:59:00,80.4,79.8,29.77,NNE,22,0.0,-999.0,98,-99.99,,,0.00,Acu-Link.com,2013-06-30 21:59:00,
2013-06-30 18:15:00,80.8,80.2,29.76,WSW,247,0.0,-999.0,98,-99.99,,,0.00,Acu-Link.com,2013-06-30 22:15:00,
2013-06-30 18:30:00,81.1,80.5,29.77,WSW,247,0.0,-999.0,98,-99.99,,,0.00,Acu-Link.com,2013-06-30 22:30:00,
2013-06-30 18:45:00,81.3,80.7,29.77,WSW,247,0.0,-999.0,98,-99.99,,,0.00,Acu-Link.com,2013-06-30 22:45:00,
2013-06-30 19:00:00,81.1,80.5,29.77,South,180,0.0,-999.0,98,-99.99,,,0.00,Acu-Link.com,2013-06-30 23:00:00,
2013-06-30 19:15:00,80.6,80.0,29.78,WSW,247,0.0,-999.0,98,-99.99,,,0.00,Acu-Link.com,2013-06-30 23:15:00,
2013-06-30 19:31:00,80.1,79.4,29.79,SSE,157,0.0,-999.0,98,-99.99,,,0.00,Acu-Link.com,2013-06-30 23:31:00,
2013-06-30 19:46:00,79.5,78.9,29.80,SSW,202,0.0,-999.0,98,-99.99,,,0.00,Acu-Link.com,2013-06-30 23:46:00,
2013-06-30 20:01:00,78.8,78.2,29.79,West,270,0.0,-999.0,98,-99.99,,,0.00,Acu-Link.com,2013-07-01 00:01:00,
2013-06-30 20:16:00,78.3,77.6,29.80,ESE,112,0.0,-999.0,98,-99.99,,,0.00,Acu-Link.com,2013-07-01 00:16:00,
2013-06-30 20:32:00,77.5,76.9,29.80,SSE,157,0.0,-999.0,98,-99.99,,,0.00,Acu-Link.com,2013-07-01 00:32:00,
2013-06-30 20:47:00,77.2,76.6,29.81,ESE,112,0.0,-999.0,98,-99.99,,,0.00,Acu-Link.com,2013-07-01 00:47:00,
2013-06-30 21:02:00,76.5,75.9,29.81,NE,45,0.0,-999.0,98,-99.99,,,0.00,Acu-Link.com,2013-07-01 01:02:00,
2013-06-30 21:17:00,76.1,75.5,29.82,SW,225,0.0,-999.0,98,-99.99,,,0.00,Acu-Link.com,2013-07-01 01:17:00,
2013-06-30 21:32:00,75.9,75.3,29.83,NW,315,0.0,-999.0,98,-99.99,,,0.00,Acu-Link.com,2013-07-01 01:32:00,
2013-06-30 21:48:00,75.7,75.1,29.83,WSW,247,0.0,-999.0,98,-99.99,,,0.00,Acu-Link.com,2013-07-01 01:48:00,
2013-06-30 22:03:00,75.6,75.0,29.83,SW,225,0.0,-999.0,98,-99.99,,,0.00,Acu-Link.com,2013-07-01 02:03:00,
2013-06-30 22:18:00,75.0,74.4,29.83,SSW,202,0.0,-999.0,98,-99.99,,,0.00,Acu-Link.com,2013-07-01 02:18:00,
2013-06-30 22:33:00,74.7,74.1,29.84,SSW,202,0.0,-999.0,98,-99.99,,,0.00,Acu-Link.com,2013-07-01 02:33:00,
2013-06-30 22:48:00,74.7,74.1,29.84,SSW,202,0.0,-999.0,98,-99.99,,,0.00,Acu-Link.com,2013-07-01 02:48:00,
2013-06-30 23:04:00,74.5,73.9,29.84,SSW,202,0.0,-999.0,98,-99.99,,,0.00,Acu-Link.com,2013-07-01 03:04:00,
2013-06-30 23:19:00,74.1,73.5,29.84,West,270,0.0,-999.0,98,-99.99,,,0.00,Acu-Link.com,2013-07-01 03:19:00,
2013-06-30 23:34:00,73.9,73.3,29.85,SSW,202,0.0,-999.0,98,-99.99,,,0.00,Acu-Link.com,2013-07-01 03:34:00,
2013-06-30 23:49:00,73.8,73.2,29.85,SSE,157,0.0,-999.0,98,-99.99,,,0.00,Acu-Link.com,2013-07-01 03:49:00,